WX8ASH-13 Weather Reports


time (UTC)temp
F
wind
direction
speed
knots
gust
knots
rain 1hr
in
rain 24hr
in
rain mn
in
humidity
%
barometer
mb
20260508135514 55 305 5.2 10.4 0.00 0.02 0.02 71 1020.3
20260508135014 54 287 0.0 10.4 0.01 0.02 0.02 72 1020.3
20260508134517 54 316 1.7 10.4 0.01 0.02 0.02 71 1020.3
20260508134013 54 318 0.0 10.4 0.01 0.02 0.02 72 1020.3
20260508133524 54 314 2.6 10.4 0.01 0.02 0.02 72 1020.3
20260508133013 54 260 2.6 9.6 0.01 0.02 0.02 73 1020.3
20260508132513 53 304 0.0 10.4 0.01 0.02 0.02 72 1020.3
20260508132015 53 274 0.0 10.4 0.01 0.02 0.02 73 1020.4
20260508131512 53 321 0.0 12.2 0.01 0.02 0.02 72 1020.3
20260508131031 53 276 0.0 12.2 0.01 0.02 0.02 71 1020.4
20260508130512 53 288 1.7 12.2 0.01 0.02 0.02 72 1020.4
20260508130012 53 321 4.3 11.3 0.01 0.02 0.02 71 1020.4
20260508125514 53 333 0.9 9.6 0.01 0.02 0.02 72 1020.3
20260508125012 53 319 0.9 9.6 0.00 0.01 0.01 71 1020.3
20260508124516 53 318 8.7 9.6 0.00 0.01 0.01 72 1020.3
20260508124011 53 312 9.6 9.6 0.00 0.01 0.01 72 1020.3
20260508123514 52 325 2.6 11.3 0.00 0.01 0.01 74 1020.3
20260508123011 52 309 2.6 13.9 0.00 0.01 0.01 75 1020.3
20260508122515 52 309 0.0 13.9 0.00 0.01 0.01 75 1020.3
20260508122011 51 330 1.7 13.9 0.00 0.01 0.01 76 1020.3
20260508121535 51 307 3.5 11.3 0.00 0.01 0.01 78 1020.3
20260508121010 50 328 0.0 11.3 0.00 0.01 0.01 79 1020.0
20260508120514 50 269 1.7 11.3 0.00 0.01 0.01 80 1019.9
20260508120010 49 325 4.3 11.3 0.00 0.01 0.01 81 1019.9
20260508115511 48 323 5.2 8.7 0.00 0.01 0.01 83 1019.9
20260508115011 47 311 0.0 7.8 0.00 0.01 0.01 85 1019.8
20260508114510 47 225 0.0 0.9 0.00 0.01 0.01 87 1019.8
20260508114013 47 225 0.0 0.9 0.00 0.01 0.01 88 1019.8
20260508113509 46 225 0.0 0.9 0.00 0.01 0.01 89 1019.7
20260508113013 46 208 0.0 0.0 0.00 0.01 0.01 90 1019.8
20260508112509 45 208 0.0 1.7 0.00 0.01 0.01 91 1019.7
20260508112011 45 208 0.0 1.7 0.00 0.01 0.01 92 1019.8
20260508111509 44 208 0.0 1.7 0.00 0.01 0.01 92 1019.8
20260508111012 44 205 0.0 0.0 0.00 0.01 0.01 93 1019.7
20260508110509 44 205 0.0 0.0 0.00 0.01 0.01 93 1019.7
20260508110010 44 205 0.0 0.0 0.00 0.01 0.01 93 1019.6
20260508105508 44 205 0.0 0.9 0.00 0.01 0.01 93 1019.6
20260508105009 45 205 0.0 0.9 0.00 0.01 0.01 93 1019.6
20260508104508 45 205 0.0 0.9 0.01 0.01 0.01 93 1019.6
20260508104007 45 228 0.0 0.0 0.01 0.01 0.01 93 1019.6
20260508103511 45 228 0.0 0.0 0.01 0.01 0.01 93 1019.6
20260508103007 45 228 0.0 0.0 0.01 0.01 0.01 92 1019.6
20260508102526 45 228 0.0 0.0 0.01 0.01 0.01 92 1019.7
20260508102007 45 228 0.0 0.0 0.01 0.01 0.01 93 1019.7
20260508101510 45 228 0.0 1.7 0.01 0.01 0.01 91 1019.6
20260508101007 46 228 0.0 2.6 0.01 0.01 0.01 91 1019.5
20260508100507 46 228 0.0 5.2 0.01 0.01 0.01 91 1019.5
20260508100008 46 200 0.0 5.2 0.01 0.01 0.01 91 1019.5
20260508095507 46 205 0.9 6.1 0.01 0.01 0.01 90 1019.5
20260508095024 46 229 1.7 6.1 0.01 0.01 0.01 89 1019.8
20260508094506 46 322 2.6 6.1 0.00 0.00 0.00 89 1020.5
20260508094009 46 322 0.0 0.0 0.00 0.00 0.00 88 1019.6
20260508093505 45 322 0.0 0.0 0.00 0.00 0.00 88 1019.6
20260508093010 46 322 0.0 0.0 0.00 0.00 0.00 88 1019.6
20260508092506 46 322 0.0 0.0 0.00 0.00 0.00 88 1019.6
20260508092022 46 322 0.0 0.0 0.00 0.00 0.00 87 1019.6
20260508091520 46 322 0.0 0.0 0.00 0.00 0.00 87 1019.6
20260508091014 47 322 0.0 0.0 0.00 0.00 0.00 87 1019.6
20260508090505 47 322 0.0 0.0 0.00 0.00 0.00 87 1019.6
20260508090035 47 322 0.0 1.7 0.00 0.00 0.00 87 1019.6
20260508085504 47 322 0.0 1.7 0.00 0.00 0.00 87 1019.6
20260508085006 47 322 0.0 1.7 0.00 0.00 0.00 87 1019.6
20260508084505 48 322 0.0 0.0 0.00 0.00 0.00 86 1019.6
20260508084004 48 322 0.0 1.7 0.00 0.00 0.00 86 1019.8
20260508083506 48 322 0.0 2.6 0.00 0.00 0.00 85 1019.8
20260508083004 48 322 0.0 2.6 0.00 0.00 0.00 84 1020.3
20260508082519 48 295 0.9 2.6 0.00 0.00 0.00 83 1020.3
20260508082006 48 304 0.0 3.5 0.00 0.00 0.00 84 1019.9
20260508081504 48 304 0.0 7.0 0.00 0.00 0.00 84 1019.9
20260508081003 48 304 0.0 7.0 0.00 0.00 0.00 84 1020.3
20260508080507 48 305 0.9 8.7 0.00 0.00 0.00 84 1020.3
20260508080003 48 284 0.0 8.7 0.00 0.00 0.00 85 1020.4
20260508075534 48 329 3.5 8.7 0.00 0.00 0.00 83 1020.5
20260508075002 48 333 4.3 7.8 0.00 0.00 0.00 83 1020.4
20260508074506 47 269 0.0 7.8 0.00 0.00 0.00 83 1020.0
20260508074002 47 287 1.7 7.8 0.00 0.00 0.00 84 1020.0
20260508073527 47 269 0.0 2.6 0.00 0.00 0.00 84 1020.0
20260508073002 47 269 0.0 5.2 0.00 0.00 0.00 84 1019.9
20260508072511 47 284 0.0 5.2 0.00 0.00 0.00 84 1020.0
20260508072001 47 204 0.9 5.2 0.00 0.00 0.00 84 1020.0
20260508071526 47 283 0.0 3.5 0.00 0.00 0.00 84 1020.3
20260508071017 47 238 0.0 4.3 0.00 0.00 0.00 84 1020.4
20260508070501 47 238 0.0 4.3 0.00 0.00 0.00 84 1020.4
20260508070018 47 297 0.0 1.7 0.00 0.00 0.00 84 1020.4
20260508065502 47 257 0.9 3.5 0.00 0.00 0.00 84 1020.5
20260508065003 47 297 0.0 6.1 0.00 0.00 0.00 84 1020.5
20260508064530 47 297 0.0 6.1 0.00 0.00 0.00 84 1020.6
20260508064002 47 257 0.0 6.1 0.00 0.00 0.00 84 1020.6
20260508063502 47 270 0.0 5.2 0.00 0.00 0.00 84 1020.6
20260508063030 47 270 0.0 5.2 0.00 0.00 0.00 84 1020.6
20260508062502 47 309 0.0 5.2 0.00 0.00 0.00 84 1020.7
20260508062001 47 288 0.0 6.1 0.00 0.00 0.00 85 1020.7
20260508061530 47 288 0.0 7.8 0.00 0.00 0.00 85 1020.9
20260508061000 47 288 0.0 7.8 0.00 0.00 0.00 85 1021.1
20260508060459 47 271 0.0 7.8 0.00 0.00 0.00 85 1021.1
20260508060030 47 249 0.0 3.5 0.00 0.00 0.00 84 1021.0
20260508055531 48 315 0.0 0.9 0.00 0.00 0.00 84 1021.0
20260508055044 48 316 0.0 0.0 0.00 0.00 0.00 84 1020.9
20260508054528 48 316 0.0 0.0 0.00 0.00 0.00 83 1020.8
20260508054031 48 316 0.0 0.0 0.00 0.00 0.00 82 1020.8
20260508053530 48 316 0.0 0.0 0.00 0.00 0.00 82 1020.8
20260508053028 48 316 0.0 0.0 0.00 0.00 0.00 82 1020.9
20260508052530 48 316 0.0 0.0 0.00 0.00 0.00 82 1020.9
20260508052043 48 316 0.0 0.0 0.00 0.00 0.00 81 1020.9
20260508051528 48 316 0.0 0.0 0.00 0.00 0.00 80 1020.8
20260508051031 48 316 0.0 0.0 0.00 0.00 0.00 79 1020.8
20260508050528 48 316 0.0 0.0 0.00 0.00 0.00 77 1020.7
20260508050043 49 316 0.0 0.0 0.00 0.00 0.00 77 1020.7
20260508045529 49 316 0.0 0.0 0.00 0.00 0.00 77 1020.7
20260508045027 49 316 0.0 0.0 0.00 0.00 0.00 75 1020.7
20260508044533 48 316 0.0 0.0 0.00 0.00 0.00 74 1020.7
20260508044027 49 316 0.0 0.0 0.00 0.00 0.00 73 1020.7
20260508043533 48 316 0.0 0.0 0.00 0.00 0.00 72 1020.6
20260508043026 49 316 0.0 0.0 0.00 0.00 0.00 72 1020.7
20260508042530 49 316 0.0 0.0 0.00 0.00 0.00 73 1020.8
20260508042027 49 316 0.0 0.0 0.00 0.00 0.00 72 1020.8
20260508041526 49 316 0.0 0.0 0.00 0.00 0.00 73 1020.7
20260508041033 49 316 0.0 0.0 0.00 0.00 0.00 71 1020.7
20260508040525 50 316 0.0 0.0 0.00 0.00 0.00 71 1020.8
20260508035525 50 316 0.0 0.0 0.00 0.00 0.00 70 1020.8
20260508035025 50 316 0.0 0.0 0.00 0.00 0.00 69 1020.9
20260508034525 50 316 0.0 0.0 0.00 0.00 0.00 68 1021.0
20260508034026 50 316 0.0 0.0 0.00 0.00 0.00 67 1021.0
20260508033527 50 316 0.0 0.0 0.00 0.00 0.00 67 1021.0
20260508033025 50 316 0.0 0.0 0.00 0.00 0.00 66 1021.0
20260508032525 50 316 0.0 0.0 0.00 0.00 0.00 66 1021.0
20260508032025 50 316 0.0 0.0 0.00 0.00 0.00 66 1020.9
20260508031526 50 316 0.0 0.0 0.00 0.00 0.00 66 1021.0
20260508031025 51 316 0.0 5.2 0.00 0.00 0.00 66 1021.0
20260508030524 51 316 0.0 5.2 0.00 0.00 0.00 65 1020.9
20260508030025 51 316 0.0 5.2 0.00 0.00 0.00 64 1021.2
20260508025526 51 302 0.0 0.0 0.00 0.00 0.00 64 1021.2
20260508025024 51 302 0.0 0.0 0.00 0.00 0.00 64 1021.2
20260508024523 51 302 0.0 0.0 0.00 0.00 0.00 63 1021.2
20260508024024 51 302 0.0 0.0 0.00 0.00 0.00 64 1021.2
20260508023525 51 302 0.0 0.0 0.00 0.00 0.00 63 1021.2
20260508023024 51 302 0.0 1.7 0.00 0.00 0.00 62 1021.1
20260508022523 51 302 0.0 6.1 0.00 0.00 0.00 62 1021.1
20260508022022 51 302 0.0 6.1 0.00 0.00 0.00 62 1021.0
20260508021523 51 323 1.7 6.1 0.00 0.00 0.00 62 1021.0
20260508021023 51 336 0.9 3.5 0.00 0.00 0.00 62 1020.9
20260508020524 51 328 0.9 1.7 0.00 0.00 0.00 63 1021.0
20260508020024 51 308 0.0 2.6 0.00 0.00 0.00 63 1021.0
20260508015523 50 315 0.0 2.6 0.00 0.00 0.00 63 1020.9
20260508015022 50 319 0.9 2.6 0.00 0.00 0.00 64 1020.9
20260508014521 50 322 0.9 0.9 0.00 0.00 0.00 66 1020.8
20260508014022 50 290 0.0 0.9 0.00 0.00 0.00 66 1020.7
20260508013524 50 290 0.0 0.9 0.00 0.00 0.00 67 1020.6
20260508013022 50 316 0.0 0.0 0.00 0.00 0.00 69 1020.5
20260508012521 50 316 0.0 0.0 0.00 0.00 0.00 71 1020.6
20260508012021 50 316 0.0 0.0 0.00 0.00 0.00 70 1020.5
20260508011521 50 316 0.0 0.0 0.00 0.00 0.00 67 1020.5
20260508011021 50 316 0.0 0.0 0.00 0.00 0.00 67 1020.4
20260508010522 50 316 0.0 0.0 0.00 0.00 0.00 66 1020.4
20260508010022 51 316 0.0 0.0 0.00 0.00 0.00 65 1020.4
20260508005521 51 316 0.0 0.0 0.00 0.00 0.00 65 1020.3
20260508005020 51 316 0.0 0.0 0.00 0.00 0.00 64 1020.3
20260508004520 51 316 0.0 0.0 0.00 0.00 0.00 63 1020.0
20260508004019 52 316 0.0 0.0 0.00 0.00 0.00 62 1020.3
20260508003519 52 316 0.0 0.0 0.00 0.00 0.00 61 1020.0
20260508003020 52 316 0.0 0.0 0.00 0.00 0.00 60 1020.0
20260508002520 52 316 0.0 0.0 0.00 0.00 0.00 58 1019.9
20260508002022 52 316 0.0 3.5 0.00 0.00 0.00 56 1019.9
20260508001520 53 316 0.0 3.5 0.00 0.00 0.00 55 1019.9
20260508001019 53 316 0.0 3.5 0.00 0.00 0.00 55 1019.8
20260508000519 53 316 0.0 2.6 0.00 0.00 0.00 54 1019.8
20260508000021 53 316 0.0 3.5 0.00 0.00 0.00 53 1019.7
20260507235520 54 316 0.0 4.3 0.00 0.00 0.00 52 1019.7
20260507235021 54 318 0.0 4.3 0.00 0.00 0.00 53 1019.7
20260507234519 54 308 0.0 4.3 0.00 0.00 0.00 52 1019.7
20260507234018 54 302 0.0 8.7 0.00 0.00 0.00 52 1019.6
20260507233518 54 301 0.9 8.7 0.00 0.00 0.00 52 1019.6
20260507233018 54 328 0.0 8.7 0.00 0.00 0.00 51 1019.7
20260507232518 54 308 3.5 6.1 0.00 0.00 0.00 53 1019.7
20260507232019 55 316 0.0 6.1 0.00 0.00 0.00 52 1019.7
20260507231520 55 321 0.9 7.8 0.00 0.00 0.00 52 1019.6
20260507231019 55 333 5.2 7.8 0.00 0.00 0.00 53 1019.7
20260507230518 54 302 0.0 7.8 0.00 0.00 0.00 51 1019.7
20260507230017 55 314 6.1 8.7 0.00 0.00 0.00 51 1019.7
20260507225516 55 329 0.0 8.7 0.00 0.00 0.00 52 1019.8
20260507225017 55 49 0.0 8.7 0.00 0.00 0.00 51 1019.8
20260507224520 55 301 4.3 7.8 0.00 0.00 0.00 49 1019.8
20260507224018 55 319 4.3 9.6 0.00 0.00 0.00 49 1019.8
20260507223517 55 335 0.0 10.4 0.00 0.00 0.00 51 1019.9
20260507223016 55 340 2.6 10.4 0.00 0.00 0.00 49 1019.9
20260507222516 55 316 5.2 11.3 0.00 0.00 0.00 49 1019.8
20260507222016 55 336 5.2 12.2 0.00 0.00 0.00 50 1019.9
20260507221515 55 328 0.9 12.2 0.00 0.00 0.00 48 1019.8
20260507221016 55 330 1.7 11.3 0.00 0.00 0.00 49 1019.8
20260507220516 55 288 6.1 11.3 0.00 0.00 0.00 50 1019.8
20260507220017 55 302 0.9 11.3 0.00 0.00 0.00 51 1019.8
20260507215516 54 326 5.2 11.3 0.00 0.00 0.00 51 1019.8
20260507215015 54 325 4.3 11.3 0.00 0.00 0.00 51 1019.7
20260507214515 54 325 4.3 11.3 0.00 0.00 0.00 51 1019.7
20260507214014 54 326 9.6 8.7 0.00 0.00 0.00 51 1019.6
20260507213514 55 346 0.0 9.6 0.00 0.00 0.00 51 1019.6
20260507213015 54 335 6.1 9.6 0.00 0.00 0.00 53 1019.6
20260507212517 54 304 0.9 9.6 0.00 0.00 0.00 51 1019.6
20260507212019 54 343 1.7 9.6 0.00 0.00 0.00 54 1019.7
20260507211516 54 339 5.2 9.6 0.00 0.00 0.00 52 1019.6
20260507211013 55 329 1.7 9.6 0.00 0.00 0.00 52 1019.6
20260507210513 55 315 1.7 14.8 0.00 0.00 0.00 51 1019.6
20260507210013 56 305 2.6 14.8 0.00 0.00 0.00 51 1019.6
20260507205513 56 322 6.1 14.8 0.00 0.00 0.00 50 1019.4
20260507205013 55 314 9.6 13.9 0.00 0.00 0.00 53 1019.5
20260507204014 55 321 4.3 11.3 0.00 0.00 0.00 51 1019.6
20260507203513 55 304 0.0 11.3 0.00 0.00 0.00 54 1019.5
20260507203013 55 336 8.7 11.3 0.00 0.00 0.00 54 1019.6
20260507202512 55 315 7.0 14.8 0.00 0.00 0.00 54 1019.6
20260507202012 55 323 7.8 14.8 0.00 0.00 0.00 53 1019.6
20260507201512 55 305 0.9 14.8 0.00 0.00 0.00 55 1019.4
20260507201014 55 326 13.9 13.9 0.00 0.00 0.00 54 1019.5
20260507200512 55 319 3.5 11.3 0.00 0.00 0.00 54 1019.6
20260507200011 55 325 7.0 11.3 0.00 0.00 0.00 56 1019.6
20260507195511 55 312 7.8 11.3 0.00 0.00 0.00 55 1019.7
20260507195011 54 301 4.3 14.8 0.00 0.00 0.00 57 1019.6
20260507194511 54 325 0.0 14.8 0.00 0.00 0.00 60 1019.6
20260507194013 54 308 3.5 14.8 0.00 0.00 0.00 57 1019.6
20260507193512 54 316 0.9 10.4 0.00 0.00 0.00 60 1019.6
20260507193012 54 328 5.2 11.3 0.00 0.00 0.00 56 1019.7
20260507192511 54 359 3.5 11.3 0.00 0.00 0.00 57 1019.8
20260507192010 54 325 5.2 12.2 0.00 0.00 0.00 59 1019.8
20260507191510 54 319 4.3 12.2 0.00 0.00 0.00 61 1019.9
20260507191010 54 316 3.5 12.2 0.00 0.00 0.00 60 1019.8
20260507190511 54 311 6.1 10.4 0.00 0.00 0.00 62 1019.8
20260507190012 54 328 2.6 13.9 0.00 0.00 0.00 59 1019.8
20260507185512 53 346 2.6 13.9 0.00 0.00 0.00 59 1019.9
20260507185011 54 311 3.5 14.8 0.00 0.00 0.00 58 1020.0
20260507184510 55 280 1.7 14.8 0.00 0.00 0.00 59 1020.0
20260507184009 55 322 10.4 14.8 0.00 0.00 0.00 59 1020.0
20260507183509 55 322 2.6 12.2 0.00 0.00 0.00 56 1019.9
20260507183009 55 311 2.6 12.2 0.00 0.00 0.00 58 1020.0
20260507182508 54 326 0.9 12.2 0.00 0.00 0.00 60 1019.9
20260507182008 54 322 7.8 8.7 0.00 0.00 0.00 59 1019.8
20260507181508 55 323 5.2 9.6 0.00 0.00 0.00 56 1019.9
20260507181008 54 315 0.0 11.3 0.00 0.00 0.00 56 1019.9
20260507180508 54 340 4.3 11.3 0.00 0.00 0.00 59 1020.0
20260507180008 54 340 2.6 11.3 0.00 0.00 0.00 58 1020.0
20260507175507 54 305 2.6 12.2 0.00 0.00 0.00 59 1020.3
20260507175008 54 302 0.9 12.2 0.00 0.00 0.00 59 1020.3
20260507174507 55 322 1.7 12.2 0.00 0.00 0.00 55 1020.3
20260507174007 56 314 7.8 12.2 0.00 0.00 0.00 54 1020.0
20260507173507 55 325 2.6 13.0 0.00 0.00 0.00 56 1020.3
20260507173007 54 309 0.0 13.0 0.00 0.00 0.00 59 1020.3
20260507172507 54 294 12.2 13.0 0.00 0.00 0.00 60 1020.3
20260507172006 54 316 6.1 12.2 0.00 0.00 0.00 56 1020.4
20260507171506 55 283 1.7 12.2 0.00 0.00 0.00 56 1020.4
20260507171006 55 291 1.7 9.6 0.00 0.00 0.00 54 1020.4
20260507170506 55 304 7.0 11.3 0.00 0.00 0.00 54 1020.5
20260507170006 55 318 3.5 11.3 0.00 0.00 0.00 59 1020.4
20260507165506 55 311 6.1 11.3 0.00 0.00 0.00 59 1020.5
20260507165006 55 274 0.0 7.0 0.00 0.00 0.00 58 1020.6
20260507164506 55 270 0.0 7.0 0.00 0.00 0.00 56 1020.5
20260507164006 55 304 0.0 7.0 0.00 0.00 0.00 58 1020.5
20260507163505 54 318 0.0 7.0 0.00 0.00 0.00 60 1020.4
20260507163005 53 307 0.9 7.0 0.00 0.00 0.00 62 1020.5
20260507162506 53 308 0.9 9.6 0.00 0.00 0.00 60 1020.4
20260507162006 53 271 0.0 13.0 0.00 0.00 0.00 60 1020.4
20260507161506 53 314 3.5 13.0 0.00 0.00 0.00 57 1020.5
20260507161005 53 277 3.5 13.0 0.00 0.00 0.00 58 1020.5
20260507160505 53 293 1.7 10.4 0.00 0.00 0.00 64 1020.5
20260507160005 53 316 6.1 10.4 0.00 0.00 0.00 58 1020.6
20260507155505 53 284 2.6 10.4 0.00 0.00 0.00 61 1020.6
20260507155004 52 328 0.0 10.4 0.00 0.00 0.00 61 1020.6
20260507154504 52 330 5.2 12.2 0.00 0.00 0.00 58 1020.5
20260507154004 52 332 5.2 12.2 0.00 0.00 0.00 58 1020.6
20260507153505 52 323 7.8 12.2 0.00 0.00 0.00 55 1020.5
20260507153006 52 315 7.8 10.4 0.00 0.00 0.00 60 1020.4
20260507152503 53 312 0.0 10.4 0.00 0.00 0.00 60 1020.5
20260507152003 53 308 4.3 7.8 0.00 0.00 0.00 60 1020.4
20260507151504 52 316 1.7 9.6 0.00 0.00 0.00 62 1020.5
20260507151003 52 290 0.0 9.6 0.00 0.00 0.00 61 1020.4
20260507150502 52 293 1.7 9.6 0.00 0.00 0.00 61 1020.5
20260507150002 51 325 6.1 9.6 0.00 0.00 0.00 60 1020.5
20260507145503 51 332 3.5 8.7 0.00 0.00 0.00 66 1020.5
20260507145003 51 298 1.7 8.7 0.00 0.00 0.00 64 1020.6
20260507144503 51 309 7.8 8.7 0.00 0.00 0.00 68 1020.6
20260507144003 51 312 4.3 4.3 0.00 0.00 0.00 68 1020.7
20260507143502 51 322 2.6 4.3 0.00 0.00 0.00 71 1020.6
20260507143032 50 302 1.7 4.3 0.00 0.00 0.00 72 1020.6
20260507142532 50 321 0.0 4.3 0.00 0.00 0.00 74 1020.6
20260507142031 50 276 0.0 7.0 0.00 0.03 0.00 74 1020.6
20260507141531 50 318 0.9 7.0 0.00 0.03 0.00 75 1020.6
20260507141031 49 311 0.0 7.0 0.00 0.03 0.00 74 1020.7
20260507140530 49 330 2.6 6.1 0.00 0.03 0.00 76 1020.7
20260507140031 49 312 0.0 6.1 0.00 0.03 0.00 77 1020.8